ARIANE 1 DEB

Satellite information

Favourite Embed

Satellite Type and Status

DEBRISIN ORBIT

Key statistics

Satellite ARIANE 1 DEB at a glance.

Uptime

14319

Days in orbit

Revolutions

≈ 14.3

Per day

Orbit

SSO

Sun Synchronous Orbit

Inclination

98.3

Latest

Satellite identification and parameters

Extended collection of information and parameters for ARIANE 1 DEB.

Object identification

Identified? True

Debris? True

Object name: ARIANE 1 DEB

International designator: 1986-019D

Object number (NORAD): 16616

Object ID (CCSDS): 16616

Country: FRANCE (FR)

Current information (Y/N): Y

RCS size: MEDIUM

Orbital parameters

Period: 100.636 minutes

Inclination: 98.2615 deg

SMA: 7166.857 km

Apoapsis: 794.185 km

Periapsis: 783.258 km

RAAN: 137.6482 deg

Eccentricy: 0.0007623

Argument of periapsis: 7.8876 deg

Mean anomaly: 58.8268 deg

Mean motion: 14.30901309 rev/day

Mean motion (dot): 0.00000561 rev/day2

B* drag term: 0.00022921 1/REarth

Two-line elements (TLE)

Creation date: May 7, 2025, 3:14 a.m.

Reference frame: TEME

Reference center: EARTH

Epoch: May 6, 2025, 10:02 p.m. UTC

TLE line 0: 0 ARIANE 1 DEB

TLE line 1: 1 16616U 86019D 25126.91858574 .00000561 00000-0 22921-3 0 9998

TLE line 2: 2 16616 98.2615 137.6482 0007623 7.8876 58.8268 14.30901309 40133

Live tracking on map

Real-time ground track for satellite ARIANE 1 DEB.

In-orbit conjunctions

A list of the most updated potential collisions computed for object ARIANE 1 DEB.

Target Orbit TCA Probability of collision Miss distance Type
FENGYUN 1C DEB SSO 2024-09-26 05:54:33 0.0002816047 592.0 (m) DEBRIS
FENGYUN 1C DEB SSO 2024-09-24 07:00:27 0.001644923 36.0 (m) DEBRIS

Associated space launch

SPOT 1 is a French Earth observation satellite. Viking is Sweden's first satellite.

ARIANE 1 DEB was lifted into orbit during the mission ‘Ariane 1 | SPOT 1 & Viking’, on board a Ariane 1 space rocket.

The launch took place on Feb. 22, 1986, 1:44 a.m. from Ariane Launch Area 1 (ELV).

For more information about the launch, click the button.

Launch to space Ariane 1 | SPOT 1 & Viking
Ariane 1 | SPOT 1 & Viking

Agency: N/A

Status: Launch Successful

Launch date: Feb. 22, 1986, 1:44 a.m. UTC

Rocket: Ariane 1

Launch pad: Ariane Launch Area 1 (ELV)

Location: Guiana Space Centre, French Guiana

...

Latest news about this satellite

There are no fresh news available about this satellite. Check back as we update our databases every day.


Newsletter sign-up

Weekly statistics, charts and insights to help you stay on top of the space industry.